STARLINK-5650 (55475 NORAD) Tracking and Keplerian Element Data

This shows tracking and keplerian element data for the satellite.

Feedback or suggestion? Click here.




ElementValue
Catalog55475
NameSTARLINK-5650
Epoch Orbit831
Epoch Day85.25001157
Epoch Year2023
RAAN76.7113
Inclination43.0008
Eccentricity0.0001396
Argument of Perigee259.5358
Mean Anonmoly171.9652
Mean Motion15.49060056
Decay Rate-0.00241966
L11 55475U 23015AC 23085.25001157 -.00241966 00000+0 -44827-2 0 9992
L22 55475 43.0008 76.7113 0001396 259.5358 171.9652 15.49060056 8313



Live tracking and technical data element details for STARLINK-5650 (NORAD 55475). STARLINK-5650 can be tracked NOW for your location showing map with azimuth and elevation plus other details from your city location.







IsCatalogInMostPopularTable: catalog: 55475, numindb: -1

Insert: records affected: 1


GetName: 55475 STARLINK-5650

Hit Count: inserted at: Tue, 28 Mar 2023 02:15:59 GMT